Location: Middlebury
(44.0153°N, 73.1678°W)
Time: 09:37:38
(UTC-04:00)

UWE-3 - Pass Details

Date: 24 June 2024
Orbit: 566 x 652 km, 97.8° (Epoch: 12 July)

Event Time Altitude Azimuth Distance (km) Brightness Sun altitude
Rises 02:35:56 0° 25° (NNE) 2,864 ? -18.7°
Reaches altitude 10° 02:38:30 10° 40° (NE) 1,939 ? -18.6°
Maximum altitude 02:41:54 24° 94° (E) 1,248 ? -18.3°
Enters shadow 02:44:33 13° 142° (SE) 1,683 ? -18.1°
